Location: Cussy
(47.0410°N, 4.6412°E)
Time: 05:33:57
(UTC+00:00)

Nadezhda 3 Rocket - Pass Details

Date: 30 November 2020
Orbit: 956 x 1000 km, 82.9° (Epoch: 18 January)

Event Time Altitude Azimuth Distance (km) Brightness Sun altitude
Rises 18:40:08 0° 198° (SSW) 3,706 7.3 -27.5°
Reaches altitude 10° 18:42:41 10° 201° (SSW) 2,763 6.6 -27.9°
Maximum altitude 18:48:58 62° 282° (WNW) 1,121 4.4 -29.0°
Drops below altitude 10° 18:55:18 10° 3° (N) 2,778 6.3 -30.1°
Sets 18:57:53 0° 7° (N) 3,728 7.0 -30.5°
